Location: Cormont
(50.5693°N, 1.7416°E)
Time: 19:57:43
(UTC+00:00)

SJ 16-02 - Pass Details

Date: 21 October 2019
Orbit: 607 x 616 km, 75.0° (Epoch: 18 November)

Event Time Altitude Azimuth Distance (km) Brightness Sun altitude
Rises 18:18:33 0° 343° (NNW) 2,883 5.0 -14.8°
Reaches altitude 10° 18:21:02 10° 354° (N) 1,973 4.0 -15.2°
Maximum altitude 18:24:56 30° 57° (ENE) 1,092 2.2 -15.8°
Enters shadow 18:25:46 28° 78° (ENE) 1,144 2.2 -15.9°
